Time,TemperatureF,DewpointF,PressureIn,WindDirection,WindDirectionDegrees,WindSpeedMPH,WindSpeedGustMPH,Humidity,HourlyPrecipIn,Conditions,Clouds,dailyrainin,SolarRadiationWatts/m^2,SoftwareType,DateUTC
2013-06-21 00:00:00,79.9,77.4,30.08,ENE,64,0.0,6.0,92,0.00,,,0.03,0.0,meteohub,2013-06-21 04:00:00,
2013-06-21 00:01:00,79.9,77.4,30.08,ENE,64,0.0,6.0,92,0.00,,,0.03,0.0,meteohub,2013-06-21 04:01:00,
2013-06-21 00:02:00,79.9,77.4,30.08,ENE,69,0.0,6.0,92,0.00,,,0.03,0.0,meteohub,2013-06-21 04:02:00,
2013-06-21 00:04:00,79.9,77.4,30.08,ENE,69,0.0,6.0,92,0.00,,,0.03,0.0,meteohub,2013-06-21 04:04:00,
2013-06-21 00:09:00,79.9,77.4,30.08,ENE,72,0.0,6.0,92,0.00,,,0.00,0.0,meteohub,2013-06-21 04:09:00,
2013-06-21 00:14:00,79.9,77.4,30.08,ENE,66,0.0,4.0,92,0.00,,,0.00,0.0,meteohub,2013-06-21 04:14:00,
2013-06-21 00:19:00,79.9,77.0,30.08,ENE,69,0.0,3.0,91,0.00,,,0.00,0.0,meteohub,2013-06-21 04:19:00,
2013-06-21 00:24:00,79.9,77.0,30.08,ESE,119,0.0,3.0,91,0.00,,,0.00,0.0,meteohub,2013-06-21 04:24:00,
2013-06-21 00:29:00,79.9,77.0,30.07,East,79,0.0,6.0,91,0.00,,,0.00,0.0,meteohub,2013-06-21 04:29:00,
2013-06-21 00:34:00,79.9,77.0,30.07,ENE,62,0.0,6.0,91,0.00,,,0.00,0.0,meteohub,2013-06-21 04:34:00,
2013-06-21 00:39:00,79.9,77.0,30.07,ENE,66,0.0,6.0,91,0.00,,,0.00,0.0,meteohub,2013-06-21 04:39:00,
2013-06-21 00:44:00,79.9,77.0,30.07,ENE,68,0.0,5.0,91,0.00,,,0.00,0.0,meteohub,2013-06-21 04:44:00,
2013-06-21 00:49:00,79.9,77.0,30.07,ENE,69,0.0,2.0,91,0.00,,,0.00,0.0,meteohub,2013-06-21 04:49:00,
2013-06-21 00:54:00,79.9,77.0,30.07,ENE,71,0.0,2.0,91,0.00,,,0.00,0.0,meteohub,2013-06-21 04:54:00,
2013-06-21 00:59:00,79.5,76.6,30.07,ENE,69,0.0,0.0,91,0.00,,,0.00,0.0,meteohub,2013-06-21 04:59:00,
2013-06-21 01:04:00,79.5,76.6,30.07,East,99,0.0,0.0,91,0.00,,,0.00,0.0,meteohub,2013-06-21 05:04:00,
2013-06-21 01:09:00,79.3,76.8,30.07,East,100,0.0,0.0,92,0.00,,,0.00,0.0,meteohub,2013-06-21 05:09:00,
2013-06-21 01:14:00,79.3,76.8,30.06,East,100,0.0,0.0,92,0.00,,,0.00,0.0,meteohub,2013-06-21 05:14:00,
2013-06-21 01:19:00,79.2,76.6,30.06,East,100,0.0,0.0,92,0.00,,,0.00,0.0,meteohub,2013-06-21 05:19:00,
2013-06-21 01:24:00,79.0,76.5,30.06,ESE,102,0.0,0.0,92,0.00,,,0.00,0.0,meteohub,2013-06-21 05:24:00,
2013-06-21 01:29:00,78.8,76.3,30.06,East,100,0.0,0.0,92,0.00,,,0.00,0.0,meteohub,2013-06-21 05:29:00,
2013-06-21 01:34:00,78.8,76.3,30.06,East,100,0.0,0.0,92,0.00,,,0.00,0.0,meteohub,2013-06-21 05:34:00,
2013-06-21 01:39:00,78.8,76.6,30.06,ESE,102,0.0,0.0,93,0.00,,,0.00,0.0,meteohub,2013-06-21 05:39:00,
2013-06-21 01:44:00,78.8,76.6,30.06,ESE,102,0.0,0.0,93,0.00,,,0.00,0.0,meteohub,2013-06-21 05:44:00,
2013-06-21 01:49:00,78.8,76.6,30.06,ESE,102,0.0,0.0,93,0.00,,,0.00,0.0,meteohub,2013-06-21 05:49:00,
2013-06-21 01:54:00,78.6,76.5,30.06,ESE,102,0.0,0.0,93,0.00,,,0.00,0.0,meteohub,2013-06-21 05:54:00,
2013-06-21 01:59:00,78.6,76.5,30.06,ESE,103,0.0,0.0,93,0.00,,,0.00,0.0,meteohub,2013-06-21 05:59:00,
2013-06-21 02:04:00,78.6,76.5,30.06,ESE,102,0.0,0.0,93,0.00,,,0.00,0.0,meteohub,2013-06-21 06:04:00,
2013-06-21 02:09:00,78.6,76.5,30.06,ESE,102,0.0,0.0,93,0.00,,,0.00,0.0,meteohub,2013-06-21 06:09:00,
2013-06-21 02:14:00,78.4,76.3,30.05,East,100,0.0,0.0,93,0.00,,,0.00,0.0,meteohub,2013-06-21 06:14:00,
2013-06-21 02:19:00,78.4,76.3,30.05,East,100,0.0,0.0,93,0.00,,,0.00,0.0,meteohub,2013-06-21 06:19:00,
2013-06-21 02:24:00,78.4,76.3,30.05,ESE,102,0.0,0.0,93,0.00,,,0.00,0.0,meteohub,2013-06-21 06:24:00,
2013-06-21 02:29:00,78.4,76.3,30.05,ESE,102,0.0,0.0,93,0.00,,,0.00,0.0,meteohub,2013-06-21 06:29:00,
2013-06-21 02:34:00,78.4,76.3,30.05,ESE,102,0.0,0.0,93,0.00,,,0.00,0.0,meteohub,2013-06-21 06:34:00,
2013-06-21 02:39:00,78.4,76.3,30.05,East,100,0.0,0.0,93,0.00,,,0.00,0.0,meteohub,2013-06-21 06:39:00,
2013-06-21 02:44:00,78.4,76.3,30.05,East,100,0.0,0.0,93,0.00,,,0.00,0.0,meteohub,2013-06-21 06:44:00,
2013-06-21 02:49:00,78.4,76.3,30.05,East,100,0.0,0.0,93,0.00,,,0.00,0.0,meteohub,2013-06-21 06:49:00,
2013-06-21 02:54:00,78.4,76.3,30.05,ESE,102,0.0,0.0,93,0.00,,,0.00,0.0,meteohub,2013-06-21 06:54:00,
2013-06-21 02:59:00,78.4,76.3,30.05,ESE,102,0.0,0.0,93,0.00,,,0.00,0.0,meteohub,2013-06-21 06:59:00,
2013-06-21 03:04:00,78.4,76.3,30.05,ESE,103,0.0,0.0,93,0.00,,,0.00,0.0,meteohub,2013-06-21 07:04:00,
2013-06-21 03:09:00,78.3,76.1,30.05,ESE,103,0.0,0.0,93,0.00,,,0.00,0.0,meteohub,2013-06-21 07:09:00,
2013-06-21 03:14:00,78.1,76.3,30.05,ESE,102,0.0,0.0,94,0.00,,,0.00,0.0,meteohub,2013-06-21 07:14:00,
2013-06-21 03:19:00,77.9,76.1,30.05,ESE,102,0.0,0.0,94,0.00,,,0.00,0.0,meteohub,2013-06-21 07:19:00,
2013-06-21 03:24:00,77.9,76.1,30.05,East,100,0.0,0.0,94,0.00,,,0.00,0.0,meteohub,2013-06-21 07:24:00,
2013-06-21 03:29:00,77.9,76.1,30.04,ESE,102,0.0,0.0,94,0.00,,,0.00,0.0,meteohub,2013-06-21 07:29:00,
2013-06-21 03:34:00,77.9,76.1,30.04,ESE,102,0.0,0.0,94,0.00,,,0.00,0.0,meteohub,2013-06-21 07:34:00,
2013-06-21 03:39:00,77.9,76.1,30.04,ESE,102,0.0,1.0,94,0.00,,,0.00,0.0,meteohub,2013-06-21 07:39:00,
2013-06-21 03:45:00,77.9,76.1,30.05,East,100,0.0,1.0,94,0.00,,,0.00,0.0,meteohub,2013-06-21 07:45:00,
2013-06-21 03:50:00,77.9,76.1,30.05,ESE,102,0.0,0.0,94,0.00,,,0.00,0.0,meteohub,2013-06-21 07:50:00,
2013-06-21 03:55:00,77.9,76.1,30.05,ESE,102,0.0,0.0,94,0.00,,,0.00,0.0,meteohub,2013-06-21 07:55:00,
2013-06-21 04:00:00,77.9,76.1,30.04,ESE,103,0.0,0.0,94,0.00,,,0.00,0.0,meteohub,2013-06-21 08:00:00,
2013-06-21 04:05:00,77.9,76.1,30.04,ESE,102,0.0,0.0,94,0.00,,,0.00,0.0,meteohub,2013-06-21 08:05:00,
2013-06-21 04:10:00,77.9,76.1,30.04,ESE,102,0.0,0.0,94,0.00,,,0.00,0.0,meteohub,2013-06-21 08:10:00,
2013-06-21 04:15:00,77.9,76.1,30.05,ESE,102,0.0,0.0,94,0.00,,,0.00,0.0,meteohub,2013-06-21 08:15:00,
2013-06-21 04:20:00,77.7,76.1,30.05,East,100,0.0,0.0,95,0.00,,,0.00,0.0,meteohub,2013-06-21 08:20:00,
2013-06-21 04:25:00,77.5,75.9,30.05,ESE,102,0.0,0.0,95,0.00,,,0.00,0.0,meteohub,2013-06-21 08:25:00,
2013-06-21 04:30:00,77.5,75.9,30.05,East,100,0.0,0.0,95,0.00,,,0.00,0.0,meteohub,2013-06-21 08:30:00,
2013-06-21 04:35:00,77.5,75.9,30.05,ESE,102,0.0,0.0,95,0.00,,,0.00,0.0,meteohub,2013-06-21 08:35:00,
2013-06-21 04:40:00,77.5,76.3,30.05,East,100,0.0,0.0,96,0.00,,,0.00,0.0,meteohub,2013-06-21 08:40:00,
2013-06-21 04:45:00,77.5,76.3,30.05,East,100,0.0,0.0,96,0.00,,,0.00,0.0,meteohub,2013-06-21 08:45:00,
2013-06-21 04:50:00,77.5,76.3,30.05,East,100,0.0,0.0,96,0.00,,,0.00,0.0,meteohub,2013-06-21 08:50:00,
2013-06-21 04:55:00,77.7,76.1,30.05,East,100,0.0,0.0,95,0.00,,,0.00,0.0,meteohub,2013-06-21 08:55:00,
2013-06-21 05:00:00,77.7,76.1,30.05,East,95,0.0,0.0,95,0.00,,,0.00,0.0,meteohub,2013-06-21 09:00:00,
2013-06-21 05:05:00,77.7,76.1,30.05,ENE,66,0.0,2.0,95,0.00,,,0.00,0.0,meteohub,2013-06-21 09:05:00,
2013-06-21 05:10:00,77.9,76.3,30.05,ENE,65,0.0,6.0,95,0.00,,,0.00,0.0,meteohub,2013-06-21 09:10:00,
2013-06-21 05:15:00,77.9,76.3,30.05,ENE,66,0.0,6.0,95,0.00,,,0.00,0.0,meteohub,2013-06-21 09:15:00,
2013-06-21 05:20:00,77.9,76.3,30.05,ENE,68,0.0,6.0,95,0.00,,,0.00,0.0,meteohub,2013-06-21 09:20:00,
2013-06-21 05:25:00,77.9,76.3,30.05,ENE,66,0.0,0.0,95,0.00,,,0.00,0.0,meteohub,2013-06-21 09:25:00,
2013-06-21 05:30:00,77.9,76.1,30.05,ENE,66,0.0,1.0,94,0.00,,,0.00,0.0,meteohub,2013-06-21 09:30:00,
2013-06-21 05:35:00,77.9,76.1,30.05,ENE,66,0.0,1.0,94,0.00,,,0.00,0.0,meteohub,2013-06-21 09:35:00,
2013-06-21 05:40:00,77.9,76.1,30.05,ENE,66,0.0,1.0,94,0.00,,,0.00,0.0,meteohub,2013-06-21 09:40:00,
2013-06-21 05:45:00,77.9,76.3,30.06,ENE,66,0.0,0.0,95,0.00,,,0.00,0.0,meteohub,2013-06-21 09:45:00,
2013-06-21 05:50:00,77.9,76.3,30.06,ENE,66,0.0,0.0,95,0.00,,,0.00,0.0,meteohub,2013-06-21 09:50:00,
2013-06-21 05:55:00,77.9,76.3,30.06,ENE,66,0.0,0.0,95,0.00,,,0.00,0.0,meteohub,2013-06-21 09:55:00,
2013-06-21 06:00:00,77.9,76.3,30.06,ENE,68,0.0,0.0,95,0.00,,,0.00,7.0,meteohub,2013-06-21 10:00:00,
2013-06-21 06:05:00,77.7,76.1,30.06,East,85,0.0,0.0,95,0.00,,,0.00,11.0,meteohub,2013-06-21 10:05:00,
2013-06-21 06:10:00,77.4,75.7,30.06,ESE,121,0.0,1.0,95,0.00,,,0.00,14.0,meteohub,2013-06-21 10:10:00,
2013-06-21 06:15:00,77.4,75.7,30.07,ESE,123,0.0,1.0,95,0.00,,,0.00,19.0,meteohub,2013-06-21 10:15:00,
2013-06-21 06:20:00,77.2,75.6,30.07,ESE,123,0.0,1.0,95,0.00,,,0.00,23.0,meteohub,2013-06-21 10:20:00,
2013-06-21 06:25:00,77.4,75.7,30.07,SE,124,0.0,0.0,95,0.00,,,0.00,60.0,meteohub,2013-06-21 10:25:00,
2013-06-21 06:30:00,77.4,75.7,30.08,ESE,123,0.0,0.0,95,0.00,,,0.00,58.0,meteohub,2013-06-21 10:30:00,
2013-06-21 06:36:00,77.5,75.9,30.08,ESE,123,0.0,0.0,95,0.00,,,0.00,72.0,meteohub,2013-06-21 10:36:00,
2013-06-21 06:41:00,77.5,75.9,30.08,ESE,123,0.0,0.0,95,0.00,,,0.00,65.0,meteohub,2013-06-21 10:41:00,
2013-06-21 06:46:00,77.5,75.9,30.08,ESE,123,0.0,0.0,95,0.00,,,0.00,70.0,meteohub,2013-06-21 10:46:00,
2013-06-21 06:51:00,77.7,76.1,30.08,ESE,123,0.0,0.0,95,0.00,,,0.00,88.0,meteohub,2013-06-21 10:51:00,
2013-06-21 06:56:00,77.7,75.9,30.08,ESE,123,0.0,0.0,94,0.00,,,0.00,86.0,meteohub,2013-06-21 10:56:00,
2013-06-21 07:01:00,77.9,76.1,30.08,ESE,123,0.0,0.0,94,0.00,,,0.00,128.0,meteohub,2013-06-21 11:01:00,
2013-06-21 07:06:00,78.3,76.5,30.08,SE,124,0.0,0.0,94,0.00,,,0.00,183.0,meteohub,2013-06-21 11:06:00,
2013-06-21 07:11:00,78.8,77.0,30.08,SE,124,0.0,0.0,94,0.00,,,0.00,194.0,meteohub,2013-06-21 11:11:00,
2013-06-21 07:16:00,79.2,77.0,30.08,ESE,123,0.0,0.0,93,0.00,,,0.00,204.0,meteohub,2013-06-21 11:16:00,
2013-06-21 07:21:00,79.5,77.0,30.08,ENE,59,6.0,0.0,92,0.00,,,0.00,222.0,meteohub,2013-06-21 11:21:00,
2013-06-21 07:26:00,79.9,77.0,30.08,ENE,61,0.0,6.0,91,0.00,,,0.00,230.0,meteohub,2013-06-21 11:26:00,
2013-06-21 07:31:00,80.1,76.8,30.08,ENE,66,3.0,6.0,90,0.00,,,0.00,111.0,meteohub,2013-06-21 11:31:00,
2013-06-21 07:36:00,80.1,76.8,30.08,ENE,65,0.0,8.0,90,0.00,,,0.00,114.0,meteohub,2013-06-21 11:36:00,
2013-06-21 07:41:00,80.1,76.5,30.08,East,79,5.0,11.0,89,0.00,,,0.00,304.0,meteohub,2013-06-21 11:41:00,
2013-06-21 07:46:00,80.4,76.8,30.08,East,79,0.0,11.0,89,0.00,,,0.00,310.0,meteohub,2013-06-21 11:46:00,
2013-06-21 07:51:00,80.4,76.5,30.08,ENE,76,0.0,11.0,88,0.00,,,0.00,120.0,meteohub,2013-06-21 11:51:00,
2013-06-21 07:56:00,80.4,76.5,30.08,East,79,7.0,8.0,88,0.00,,,0.00,176.0,meteohub,2013-06-21 11:56:00,
2013-06-21 08:01:00,81.0,77.4,30.09,East,82,0.0,11.0,89,0.00,,,0.00,387.0,meteohub,2013-06-21 12:01:00,
2013-06-21 08:06:00,81.1,77.2,30.09,East,99,3.0,11.0,88,0.00,,,0.00,385.0,meteohub,2013-06-21 12:06:00,
2013-06-21 08:11:00,81.1,76.8,30.09,ENE,72,0.0,12.0,87,0.00,,,0.00,160.0,meteohub,2013-06-21 12:11:00,
2013-06-21 08:16:00,81.3,77.0,30.09,ENE,69,0.0,12.0,87,0.00,,,0.00,484.0,meteohub,2013-06-21 12:16:00,
2013-06-21 08:22:00,81.9,77.5,30.09,ESE,117,6.0,12.0,87,0.00,,,0.00,470.0,meteohub,2013-06-21 12:22:00,
2013-06-21 08:27:00,82.2,77.2,30.09,East,80,12.0,12.0,85,0.00,,,0.00,489.0,meteohub,2013-06-21 12:27:00,
2013-06-21 08:32:00,82.4,77.0,30.09,East,86,0.0,12.0,84,0.00,,,0.00,259.0,meteohub,2013-06-21 12:32:00,
2013-06-21 08:37:00,82.4,76.3,30.09,ESE,113,8.0,12.0,82,0.00,,,0.00,276.0,meteohub,2013-06-21 12:37:00,
2013-06-21 08:42:00,82.9,76.8,30.09,East,90,3.0,13.0,82,0.00,,,0.00,568.0,meteohub,2013-06-21 12:42:00,
2013-06-21 08:47:00,83.7,77.2,30.09,ENE,72,2.0,13.0,81,0.00,,,0.00,574.0,meteohub,2013-06-21 12:47:00,
2013-06-21 08:52:00,83.8,77.4,30.09,ENE,61,0.0,13.0,81,0.00,,,0.00,560.0,meteohub,2013-06-21 12:52:00,
2013-06-21 08:57:00,84.0,77.2,30.09,East,92,2.0,12.0,80,0.00,,,0.00,619.0,meteohub,2013-06-21 12:57:00,
2013-06-21 09:02:00,83.8,77.0,30.09,East,90,3.0,12.0,80,0.00,,,0.00,209.0,meteohub,2013-06-21 13:02:00,
2013-06-21 09:07:00,83.8,77.0,30.09,East,79,1.0,12.0,80,0.00,,,0.00,663.0,meteohub,2013-06-21 13:07:00,
2013-06-21 09:12:00,84.0,77.2,30.09,East,96,6.0,12.0,80,0.00,,,0.00,660.0,meteohub,2013-06-21 13:12:00,
2013-06-21 09:17:00,84.0,76.8,30.09,ENE,61,5.0,12.0,79,0.00,,,0.00,660.0,meteohub,2013-06-21 13:17:00,
2013-06-21 09:22:00,84.4,77.2,30.09,NE,49,6.0,12.0,79,0.00,,,0.00,656.0,meteohub,2013-06-21 13:22:00,
2013-06-21 09:27:00,84.4,76.8,30.10,ENE,78,3.0,12.0,78,0.00,,,0.00,209.0,meteohub,2013-06-21 13:27:00,
2013-06-21 09:32:00,84.0,76.8,30.10,ESE,107,0.0,11.0,79,0.00,,,0.00,227.0,meteohub,2013-06-21 13:32:00,
2013-06-21 09:38:00,84.0,76.8,30.10,ENE,66,0.0,14.0,79,0.00,,,0.00,772.0,meteohub,2013-06-21 13:38:00,
2013-06-21 09:43:00,84.7,76.3,30.09,ENE,78,10.0,14.0,76,0.00,,,0.00,725.0,meteohub,2013-06-21 13:43:00,
2013-06-21 09:48:00,85.1,76.3,30.09,ESE,112,5.0,14.0,75,0.00,,,0.00,633.0,meteohub,2013-06-21 13:48:00,
2013-06-21 09:53:00,85.5,77.0,30.09,NE,41,7.0,16.0,76,0.00,,,0.00,757.0,meteohub,2013-06-21 13:53:00,
2013-06-21 09:58:00,85.5,77.0,30.09,East,95,16.0,16.0,76,0.00,,,0.00,801.0,meteohub,2013-06-21 13:58:00,
2013-06-21 10:03:00,85.5,77.0,30.09,East,95,5.0,16.0,76,0.00,,,0.00,838.0,meteohub,2013-06-21 14:03:00,
2013-06-21 10:08:00,85.6,76.8,30.09,East,86,13.0,16.0,75,0.00,,,0.00,808.0,meteohub,2013-06-21 14:08:00,
2013-06-21 10:13:00,85.6,76.8,30.10,ENE,72,12.0,16.0,75,0.00,,,0.00,822.0,meteohub,2013-06-21 14:13:00,
2013-06-21 10:19:00,85.6,76.8,30.10,NE,48,6.0,14.0,75,0.00,,,0.00,843.0,meteohub,2013-06-21 14:19:00,
2013-06-21 10:24:00,85.8,76.1,30.10,East,90,5.0,14.0,73,0.00,,,0.00,827.0,meteohub,2013-06-21 14:24:00,
2013-06-21 10:29:00,85.6,76.5,30.09,ENE,76,5.0,14.0,74,0.00,,,0.00,882.0,meteohub,2013-06-21 14:29:00,
2013-06-21 10:34:00,85.6,76.8,30.09,East,90,5.0,14.0,75,0.00,,,0.00,282.0,meteohub,2013-06-21 14:34:00,
2013-06-21 10:39:00,85.1,76.6,30.09,East,79,6.0,14.0,76,0.00,,,0.00,324.0,meteohub,2013-06-21 14:39:00,
2013-06-21 10:44:00,85.6,77.2,30.09,East,89,5.0,14.0,76,0.00,,,0.00,904.0,meteohub,2013-06-21 14:44:00,
2013-06-21 10:49:00,86.5,76.8,30.09,ENE,62,7.0,14.0,73,0.00,,,0.00,911.0,meteohub,2013-06-21 14:49:00,
2013-06-21 10:54:00,87.1,77.4,30.09,East,83,7.0,14.0,73,0.00,,,0.00,897.0,meteohub,2013-06-21 14:54:00,
2013-06-21 10:59:00,87.3,76.6,30.09,ENE,76,7.0,14.0,71,0.00,,,0.00,999.0,meteohub,2013-06-21 14:59:00,
2013-06-21 11:04:00,87.4,76.5,30.09,East,92,12.0,14.0,70,0.00,,,0.00,929.0,meteohub,2013-06-21 15:04:00,
2013-06-21 11:09:00,87.3,75.9,30.09,ENE,75,11.0,14.0,69,0.00,,,0.00,903.0,meteohub,2013-06-21 15:09:00,
2013-06-21 11:14:00,87.4,75.9,30.09,ENE,72,11.0,17.0,69,0.00,,,0.00,927.0,meteohub,2013-06-21 15:14:00,
2013-06-21 11:19:00,87.6,76.6,30.09,East,83,7.0,17.0,70,0.00,,,0.00,945.0,meteohub,2013-06-21 15:19:00,
2013-06-21 11:24:00,87.3,76.6,30.09,SE,126,10.0,17.0,71,0.00,,,0.00,954.0,meteohub,2013-06-21 15:24:00,
2013-06-21 11:29:00,87.4,77.4,30.09,East,82,8.0,17.0,72,0.00,,,0.00,948.0,meteohub,2013-06-21 15:29:00,
2013-06-21 11:34:00,87.4,76.8,30.09,East,86,8.0,17.0,71,0.00,,,0.00,955.0,meteohub,2013-06-21 15:34:00,
2013-06-21 11:39:00,87.6,77.0,30.09,ENE,61,10.0,17.0,71,0.00,,,0.00,934.0,meteohub,2013-06-21 15:39:00,
2013-06-21 11:44:00,87.6,76.6,30.08,East,97,0.0,17.0,70,0.00,,,0.00,947.0,meteohub,2013-06-21 15:44:00,
2013-06-21 11:49:00,88.0,77.0,30.08,ESE,117,0.0,17.0,70,0.00,,,0.00,936.0,meteohub,2013-06-21 15:49:00,
2013-06-21 11:55:00,88.5,77.0,30.08,ESE,112,6.0,17.0,69,0.00,,,0.00,822.0,meteohub,2013-06-21 15:55:00,
2013-06-21 12:00:00,88.3,77.4,30.08,NE,41,6.0,17.0,70,0.00,,,0.00,345.0,meteohub,2013-06-21 16:00:00,
2013-06-21 12:05:00,88.5,77.0,30.08,ENE,72,8.0,17.0,69,0.00,,,0.00,1010.0,meteohub,2013-06-21 16:05:00,
2013-06-21 12:10:00,87.8,77.2,30.08,East,90,7.0,17.0,71,0.00,,,0.00,354.0,meteohub,2013-06-21 16:10:00,
2013-06-21 12:15:00,87.4,77.4,30.07,ESE,107,12.0,17.0,72,0.00,,,0.00,561.0,meteohub,2013-06-21 16:15:00,
2013-06-21 12:20:00,88.0,77.9,30.07,ENE,72,11.0,14.0,72,0.00,,,0.00,456.0,meteohub,2013-06-21 16:20:00,
2013-06-21 12:26:00,88.3,77.4,30.07,ENE,73,5.0,14.0,70,0.00,,,0.00,429.0,meteohub,2013-06-21 16:26:00,
2013-06-21 12:31:00,88.2,78.4,30.08,NE,49,12.0,14.0,73,0.00,,,0.00,429.0,meteohub,2013-06-21 16:31:00,
2013-06-21 12:36:00,88.0,78.3,30.08,NNE,28,2.0,16.0,73,0.00,,,0.00,347.0,meteohub,2013-06-21 16:36:00,
2013-06-21 12:42:00,88.2,77.9,30.08,ENE,64,7.0,17.0,72,0.00,,,0.00,1017.0,meteohub,2013-06-21 16:42:00,
2013-06-21 12:47:00,87.4,77.4,30.08,ESE,102,5.0,17.0,72,0.00,,,0.00,994.0,meteohub,2013-06-21 16:47:00,
2013-06-21 12:52:00,87.8,77.2,30.08,East,92,10.0,17.0,71,0.00,,,0.00,987.0,meteohub,2013-06-21 16:52:00,
2013-06-21 12:57:00,88.0,77.4,30.08,ENE,75,12.0,19.0,71,0.00,,,0.00,998.0,meteohub,2013-06-21 16:57:00,
2013-06-21 13:02:00,88.0,77.4,30.07,East,86,13.0,19.0,71,0.00,,,0.00,1006.0,meteohub,2013-06-21 17:02:00,
2013-06-21 13:07:00,87.6,77.5,30.07,NE,52,9.0,20.0,72,0.00,,,0.00,1052.0,meteohub,2013-06-21 17:07:00,
2013-06-21 13:12:00,87.6,77.0,30.07,NNE,17,6.0,20.0,71,0.00,,,0.00,903.0,meteohub,2013-06-21 17:12:00,
2013-06-21 13:17:00,87.6,77.0,30.07,NE,52,11.0,20.0,71,0.00,,,0.00,966.0,meteohub,2013-06-21 17:17:00,
2013-06-21 13:22:00,87.8,78.1,30.07,NE,41,7.0,20.0,73,0.00,,,0.00,347.0,meteohub,2013-06-21 17:22:00,
2013-06-21 13:27:00,87.8,78.1,30.07,NE,55,14.0,20.0,73,0.00,,,0.00,1029.0,meteohub,2013-06-21 17:27:00,
2013-06-21 13:32:00,87.8,77.7,30.07,East,95,10.0,17.0,72,0.00,,,0.00,973.0,meteohub,2013-06-21 17:32:00,
2013-06-21 13:37:00,87.6,77.0,30.07,ESE,109,7.0,18.0,71,0.00,,,0.00,1006.0,meteohub,2013-06-21 17:37:00,
2013-06-21 13:42:00,86.7,76.1,30.06,East,82,9.0,19.0,71,0.00,,,0.00,917.0,meteohub,2013-06-21 17:42:00,
2013-06-21 13:46:00,87.4,76.8,30.06,ENE,66,10.0,19.0,71,0.00,,,0.00,908.0,meteohub,2013-06-21 17:46:00,
2013-06-21 13:47:00,87.4,76.5,30.06,ENE,71,10.0,19.0,70,0.00,,,0.00,918.0,meteohub,2013-06-21 17:47:00,
2013-06-21 13:52:00,87.8,77.2,30.06,East,85,16.0,19.0,71,0.00,,,0.00,961.0,meteohub,2013-06-21 17:52:00,
2013-06-21 13:58:00,88.0,77.4,30.06,NE,54,1.0,19.0,71,0.00,,,0.00,955.0,meteohub,2013-06-21 17:58:00,
2013-06-21 14:03:00,88.5,77.0,30.06,ENE,71,16.0,19.0,69,0.00,,,0.00,959.0,meteohub,2013-06-21 18:03:00,
2013-06-21 14:08:00,87.8,76.8,30.06,East,88,12.0,19.0,70,0.00,,,0.00,860.0,meteohub,2013-06-21 18:08:00,
2013-06-21 14:13:00,88.3,76.5,30.05,East,95,8.0,17.0,68,0.00,,,0.00,846.0,meteohub,2013-06-21 18:13:00,
2013-06-21 14:18:00,88.3,77.4,30.05,NE,41,6.0,17.0,70,0.00,,,0.00,873.0,meteohub,2013-06-21 18:18:00,
2013-06-21 14:23:00,88.2,77.2,30.05,ENE,58,10.0,17.0,70,0.00,,,0.00,887.0,meteohub,2013-06-21 18:23:00,
2013-06-21 14:24:00,88.2,77.2,30.05,East,99,10.0,17.0,70,0.00,,,0.00,887.0,meteohub,2013-06-21 18:24:00,
2013-06-21 14:29:00,88.0,76.5,30.05,North,11,14.0,18.0,69,0.00,,,0.00,797.0,meteohub,2013-06-21 18:29:00,
2013-06-21 14:35:00,88.3,76.8,30.05,ENE,66,13.0,19.0,69,0.00,,,0.00,706.0,meteohub,2013-06-21 18:35:00,
2013-06-21 14:40:00,88.3,76.8,30.05,East,79,8.0,19.0,69,0.00,,,0.00,841.0,meteohub,2013-06-21 18:40:00,
2013-06-21 14:45:00,88.3,77.4,30.05,ESE,123,11.0,18.0,70,0.00,,,0.00,818.0,meteohub,2013-06-21 18:45:00,
2013-06-21 14:46:00,88.5,77.5,30.05,ESE,104,4.0,17.0,70,0.00,,,0.00,827.0,meteohub,2013-06-21 18:46:00,
2013-06-21 14:47:00,88.5,77.5,30.05,ENE,65,6.0,17.0,70,0.00,,,0.00,827.0,meteohub,2013-06-21 18:47:00,
2013-06-21 14:52:00,88.2,77.9,30.05,NE,54,11.0,18.0,72,0.00,,,0.00,848.0,meteohub,2013-06-21 18:52:00,
2013-06-21 14:58:00,87.6,77.0,30.04,NE,48,12.0,18.0,71,0.00,,,0.00,794.0,meteohub,2013-06-21 18:58:00,
2013-06-21 15:03:00,87.4,77.7,30.04,NE,56,8.0,19.0,73,0.00,,,0.00,577.0,meteohub,2013-06-21 19:03:00,
2013-06-21 15:08:00,87.3,77.9,30.04,NE,55,3.0,19.0,74,0.00,,,0.00,776.0,meteohub,2013-06-21 19:08:00,
2013-06-21 15:13:00,87.6,77.9,30.04,NE,51,11.0,19.0,73,0.00,,,0.00,551.0,meteohub,2013-06-21 19:13:00,
2013-06-21 15:18:00,87.4,76.8,30.04,NE,34,9.0,16.0,71,0.00,,,0.00,662.0,meteohub,2013-06-21 19:18:00,
2013-06-21 15:20:00,87.4,77.4,30.04,ENE,66,3.0,16.0,72,0.00,,,0.00,662.0,meteohub,2013-06-21 19:20:00,
2013-06-21 15:25:00,87.4,77.4,30.04,NE,35,9.0,17.0,72,0.00,,,0.00,730.0,meteohub,2013-06-21 19:25:00,
2013-06-21 15:30:00,87.4,77.4,30.04,ENE,72,5.0,17.0,72,0.00,,,0.00,709.0,meteohub,2013-06-21 19:30:00,
2013-06-21 15:35:00,88.0,77.4,30.04,ENE,72,5.0,17.0,71,0.00,,,0.00,669.0,meteohub,2013-06-21 19:35:00,
2013-06-21 15:40:00,87.6,77.0,30.04,NE,34,6.0,17.0,71,0.00,,,0.00,688.0,meteohub,2013-06-21 19:40:00,
2013-06-21 15:42:00,87.4,77.4,30.04,NE,52,8.0,17.0,72,0.00,,,0.00,697.0,meteohub,2013-06-21 19:42:00,
2013-06-21 15:43:00,87.4,77.4,30.04,ENE,75,7.0,17.0,72,0.00,,,0.00,690.0,meteohub,2013-06-21 19:43:00,
2013-06-21 15:48:00,87.3,77.5,30.04,NE,54,17.0,19.0,73,0.00,,,0.00,651.0,meteohub,2013-06-21 19:48:00,
2013-06-21 15:53:00,87.4,76.8,30.04,ENE,71,12.0,19.0,71,0.00,,,0.00,642.0,meteohub,2013-06-21 19:53:00,
2013-06-21 15:58:00,87.4,76.8,30.04,SE,128,11.0,19.0,71,0.00,,,0.00,445.0,meteohub,2013-06-21 19:58:00,
2013-06-21 16:03:00,87.1,77.0,30.04,East,86,8.0,18.0,72,0.00,,,0.00,600.0,meteohub,2013-06-21 20:03:00,
2013-06-21 16:04:00,87.1,76.5,30.04,East,95,5.0,18.0,71,0.00,,,0.00,600.0,meteohub,2013-06-21 20:04:00,
2013-06-21 16:08:00,87.3,76.3,30.04,NE,35,6.0,18.0,70,0.00,,,0.00,364.0,meteohub,2013-06-21 20:08:00,
2013-06-21 16:12:00,87.1,75.7,30.04,ENE,65,6.0,18.0,69,0.00,,,0.00,387.0,meteohub,2013-06-21 20:12:00,
2013-06-21 16:14:00,87.3,75.9,30.04,ENE,71,12.0,18.0,69,0.00,,,0.00,568.0,meteohub,2013-06-21 20:14:00,
2013-06-21 16:19:00,87.1,76.1,30.04,East,88,8.0,20.0,70,0.00,,,0.00,568.0,meteohub,2013-06-21 20:19:00,
2013-06-21 16:25:00,86.4,76.6,30.04,ENE,68,5.0,20.0,73,0.00,,,0.00,188.0,meteohub,2013-06-21 20:25:00,
2013-06-21 16:30:00,85.6,75.9,30.04,NE,47,12.0,20.0,73,0.00,,,0.00,178.0,meteohub,2013-06-21 20:30:00,
2013-06-21 16:35:00,84.9,76.5,30.04,NE,34,8.0,17.0,76,0.00,,,0.00,157.0,meteohub,2013-06-21 20:35:00,
2013-06-21 16:40:00,84.7,77.2,30.04,NE,44,9.0,17.0,78,0.00,,,0.00,262.0,meteohub,2013-06-21 20:40:00,
2013-06-21 16:45:00,84.7,77.2,30.04,East,86,6.0,17.0,78,0.00,,,0.00,155.0,meteohub,2013-06-21 20:45:00,
2013-06-21 16:50:00,84.4,76.8,30.04,ENE,71,14.0,16.0,78,0.00,,,0.00,172.0,meteohub,2013-06-21 20:50:00,
2013-06-21 16:55:00,84.0,76.1,30.04,ESE,106,5.0,14.0,77,0.00,,,0.00,160.0,meteohub,2013-06-21 20:55:00,
2013-06-21 17:00:00,84.4,75.6,30.04,ESE,109,9.0,15.0,75,0.00,,,0.00,364.0,meteohub,2013-06-21 21:00:00,
2013-06-21 17:05:00,84.7,75.6,30.04,ESE,116,4.0,15.0,74,0.00,,,0.00,373.0,meteohub,2013-06-21 21:05:00,
2013-06-21 17:10:00,84.7,75.6,30.04,ESE,116,6.0,16.0,74,0.00,,,0.00,192.0,meteohub,2013-06-21 21:10:00,
2013-06-21 17:15:00,84.6,76.1,30.04,ENE,76,9.0,16.0,76,0.00,,,0.00,134.0,meteohub,2013-06-21 21:15:00,
2013-06-21 17:20:00,84.0,76.5,30.04,SE,130,8.0,16.0,78,0.00,,,0.00,157.0,meteohub,2013-06-21 21:20:00,
2013-06-21 17:25:00,84.0,76.5,30.04,ENE,61,5.0,16.0,78,0.00,,,0.00,130.0,meteohub,2013-06-21 21:25:00,
2013-06-21 17:30:00,84.0,76.8,30.04,NE,45,9.0,16.0,79,0.00,,,0.00,123.0,meteohub,2013-06-21 21:30:00,
2013-06-21 17:35:00,84.0,77.2,30.04,NNE,20,0.0,14.0,80,0.00,,,0.00,104.0,meteohub,2013-06-21 21:35:00,
2013-06-21 17:40:00,83.8,76.6,30.04,ENE,75,10.0,14.0,79,0.00,,,0.00,86.0,meteohub,2013-06-21 21:40:00,
2013-06-21 17:45:00,83.8,77.4,30.04,ENE,71,10.0,14.0,81,0.00,,,0.00,90.0,meteohub,2013-06-21 21:45:00,
2013-06-21 17:50:00,83.5,77.0,30.04,East,90,7.0,14.0,81,0.00,,,0.00,76.0,meteohub,2013-06-21 21:50:00,
2013-06-21 17:55:00,83.1,76.6,30.04,ENE,58,6.0,14.0,81,0.00,,,0.00,72.0,meteohub,2013-06-21 21:55:00,
2013-06-21 18:00:00,82.9,76.1,30.04,NE,52,11.0,14.0,80,0.00,,,0.00,76.0,meteohub,2013-06-21 22:00:00,
2013-06-21 18:05:00,82.8,75.9,30.04,East,89,7.0,19.0,80,0.00,,,0.00,70.0,meteohub,2013-06-21 22:05:00,
2013-06-21 18:10:00,82.6,76.1,30.04,East,95,12.0,19.0,81,0.00,,,0.00,60.0,meteohub,2013-06-21 22:10:00,
2013-06-21 18:15:00,82.6,76.1,30.05,ESE,119,8.0,19.0,81,0.00,,,0.00,53.0,meteohub,2013-06-21 22:15:00,
2013-06-21 18:20:00,82.6,76.1,30.05,ESE,116,10.0,16.0,81,0.00,,,0.00,46.0,meteohub,2013-06-21 22:20:00,
2013-06-21 18:26:00,82.6,76.1,30.05,East,86,6.0,17.0,81,0.00,,,0.00,42.0,meteohub,2013-06-21 22:26:00,
2013-06-21 18:31:00,82.4,75.9,30.05,East,92,8.0,17.0,81,0.00,,,0.00,32.0,meteohub,2013-06-21 22:31:00,
2013-06-21 18:36:00,82.2,76.1,30.05,East,83,15.0,17.0,82,0.00,,,0.00,28.0,meteohub,2013-06-21 22:36:00,
2013-06-21 18:41:00,82.2,76.1,30.05,East,96,6.0,16.0,82,0.00,,,0.00,23.0,meteohub,2013-06-21 22:41:00,
2013-06-21 18:46:00,82.0,75.6,30.05,East,96,7.0,16.0,81,0.00,,,0.00,16.0,meteohub,2013-06-21 22:46:00,
2013-06-21 18:51:00,81.9,75.0,30.05,East,90,8.0,16.0,80,0.00,,,0.00,12.0,meteohub,2013-06-21 22:51:00,
2013-06-21 18:56:00,81.9,75.4,30.05,East,89,5.0,16.0,81,0.00,,,0.00,11.0,meteohub,2013-06-21 22:56:00,
2013-06-21 19:01:00,81.9,75.4,30.06,East,88,12.0,16.0,81,0.00,,,0.00,5.0,meteohub,2013-06-21 23:01:00,
2013-06-21 19:06:00,81.9,75.7,30.06,East,85,9.0,14.0,82,0.00,,,0.00,0.0,meteohub,2013-06-21 23:06:00,
2013-06-21 19:11:00,81.7,75.6,30.06,ENE,65,7.0,12.0,82,0.00,,,0.00,0.0,meteohub,2013-06-21 23:11:00,
2013-06-21 19:16:00,81.3,75.4,30.06,ENE,62,2.0,13.0,82,0.00,,,0.00,0.0,meteohub,2013-06-21 23:16:00,
2013-06-21 19:21:00,81.3,75.4,30.06,ENE,72,7.0,13.0,82,0.00,,,0.00,0.0,meteohub,2013-06-21 23:21:00,
2013-06-21 19:26:00,81.3,75.4,30.06,East,80,8.0,13.0,82,0.00,,,0.00,0.0,meteohub,2013-06-21 23:26:00,
2013-06-21 19:31:00,81.7,75.6,30.06,East,99,3.0,12.0,82,0.00,,,0.00,0.0,meteohub,2013-06-21 23:31:00,
2013-06-21 19:36:00,81.7,75.6,30.06,ENE,72,8.0,12.0,82,0.00,,,0.00,0.0,meteohub,2013-06-21 23:36:00,
2013-06-21 19:41:00,81.7,75.6,30.06,East,99,9.0,11.0,82,0.00,,,0.00,0.0,meteohub,2013-06-21 23:41:00,
2013-06-21 19:46:00,81.7,75.9,30.06,East,89,6.0,12.0,83,0.00,,,0.00,0.0,meteohub,2013-06-21 23:46:00,
2013-06-21 19:51:00,81.3,75.7,30.06,ENE,68,7.0,13.0,83,0.00,,,0.00,0.0,meteohub,2013-06-21 23:51:00,
2013-06-21 19:56:00,81.3,75.7,30.06,East,82,6.0,13.0,83,0.00,,,0.00,0.0,meteohub,2013-06-21 23:56:00,
2013-06-21 20:01:00,81.3,76.1,30.07,East,79,5.0,13.0,84,0.00,,,0.00,0.0,meteohub,2013-06-22 00:01:00,
2013-06-21 20:06:00,81.3,76.1,30.07,ESE,102,7.0,12.0,84,0.00,,,0.00,0.0,meteohub,2013-06-22 00:06:00,
2013-06-21 20:11:00,81.3,76.1,30.07,ENE,68,7.0,12.0,84,0.00,,,0.00,0.0,meteohub,2013-06-22 00:11:00,
2013-06-21 20:16:00,81.3,76.1,30.07,East,80,8.0,11.0,84,0.00,,,0.00,0.0,meteohub,2013-06-22 00:16:00,
2013-06-21 20:21:00,81.3,76.1,30.07,East,86,9.0,12.0,84,0.00,,,0.00,0.0,meteohub,2013-06-22 00:21:00,
2013-06-21 20:26:00,81.1,75.9,30.07,East,79,5.0,12.0,84,0.00,,,0.00,0.0,meteohub,2013-06-22 00:26:00,
2013-06-21 20:31:00,81.1,75.9,30.07,ESE,104,6.0,14.0,84,0.00,,,0.00,0.0,meteohub,2013-06-22 00:31:00,
2013-06-21 20:36:00,81.1,75.9,30.07,ENE,68,5.0,14.0,84,0.00,,,0.00,0.0,meteohub,2013-06-22 00:36:00,
2013-06-21 20:42:00,81.1,76.3,30.07,East,97,6.0,13.0,85,0.00,,,0.00,0.0,meteohub,2013-06-22 00:42:00,
2013-06-21 20:47:00,81.1,76.3,30.08,East,79,5.0,13.0,85,0.00,,,0.00,0.0,meteohub,2013-06-22 00:47:00,
2013-06-21 20:52:00,81.1,76.3,30.08,East,88,4.0,13.0,85,0.00,,,0.00,0.0,meteohub,2013-06-22 00:52:00,
2013-06-21 20:57:00,81.1,76.3,30.08,ENE,64,2.0,13.0,85,0.00,,,0.00,0.0,meteohub,2013-06-22 00:57:00,
2013-06-21 21:02:00,81.1,76.3,30.08,ENE,72,8.0,14.0,85,0.00,,,0.00,0.0,meteohub,2013-06-22 01:02:00,
2013-06-21 21:07:00,81.1,76.3,30.08,ENE,66,10.0,14.0,85,0.00,,,0.00,0.0,meteohub,2013-06-22 01:07:00,
2013-06-21 21:12:00,81.1,76.5,30.08,ENE,69,3.0,14.0,86,0.00,,,0.00,0.0,meteohub,2013-06-22 01:12:00,
2013-06-21 21:17:00,81.1,76.5,30.08,ENE,73,0.0,14.0,86,0.00,,,0.00,0.0,meteohub,2013-06-22 01:17:00,
2013-06-21 21:22:00,81.1,76.5,30.08,ENE,71,7.0,13.0,86,0.00,,,0.00,0.0,meteohub,2013-06-22 01:22:00,
2013-06-21 21:27:00,81.1,76.5,30.08,ENE,61,5.0,13.0,86,0.00,,,0.00,0.0,meteohub,2013-06-22 01:27:00,
2013-06-21 21:32:00,81.1,76.5,30.08,ENE,78,7.0,14.0,86,0.00,,,0.00,0.0,meteohub,2013-06-22 01:32:00,
2013-06-21 21:37:00,81.0,76.5,30.08,East,85,7.0,14.0,86,0.00,,,0.00,0.0,meteohub,2013-06-22 01:37:00,
2013-06-21 21:42:00,81.0,76.5,30.08,ENE,73,6.0,11.0,86,0.00,,,0.00,0.0,meteohub,2013-06-22 01:42:00,
2013-06-21 21:47:00,81.0,76.6,30.09,NE,45,6.0,11.0,87,0.00,,,0.00,0.0,meteohub,2013-06-22 01:47:00,
2013-06-21 21:52:00,80.8,76.5,30.09,East,95,11.0,17.0,87,0.00,,,0.00,0.0,meteohub,2013-06-22 01:52:00,
2013-06-21 21:57:00,80.8,76.5,30.09,East,85,7.0,17.0,87,0.00,,,0.00,0.0,meteohub,2013-06-22 01:57:00,
2013-06-21 22:02:00,80.8,76.5,30.09,East,80,13.0,17.0,87,0.00,,,0.00,0.0,meteohub,2013-06-22 02:02:00,
2013-06-21 22:07:00,80.8,76.5,30.09,NE,48,3.0,17.0,87,0.00,,,0.00,0.0,meteohub,2013-06-22 02:07:00,
2013-06-21 22:12:00,80.8,76.5,30.09,East,80,10.0,16.0,87,0.00,,,0.00,0.0,meteohub,2013-06-22 02:12:00,
2013-06-21 22:17:00,80.4,76.1,30.09,East,93,5.0,16.0,87,0.00,,,0.00,0.0,meteohub,2013-06-22 02:17:00,
2013-06-21 22:22:00,80.4,76.1,30.09,East,83,7.0,16.0,87,0.00,,,0.00,0.0,meteohub,2013-06-22 02:22:00,
2013-06-21 22:27:00,80.4,76.1,30.09,ENE,68,0.0,14.0,87,0.00,,,0.00,0.0,meteohub,2013-06-22 02:27:00,
2013-06-21 22:32:00,80.2,76.1,30.09,ENE,68,6.0,14.0,87,0.00,,,0.00,0.0,meteohub,2013-06-22 02:32:00,
2013-06-21 22:38:00,80.2,76.3,30.09,ENE,58,2.0,13.0,88,0.00,,,0.00,0.0,meteohub,2013-06-22 02:38:00,
2013-06-21 22:43:00,80.4,76.5,30.09,East,93,12.0,13.0,88,0.00,,,0.00,0.0,meteohub,2013-06-22 02:43:00,
2013-06-21 22:48:00,80.2,76.3,30.09,East,89,7.0,13.0,88,0.00,,,0.00,0.0,meteohub,2013-06-22 02:48:00,
2013-06-21 22:53:00,80.2,76.3,30.09,NE,56,6.0,13.0,88,0.00,,,0.00,0.0,meteohub,2013-06-22 02:53:00,
2013-06-21 22:58:00,80.2,76.3,30.09,ENE,71,7.0,13.0,88,0.00,,,0.00,0.0,meteohub,2013-06-22 02:58:00,
2013-06-21 23:03:00,80.2,76.3,30.09,NE,49,5.0,14.0,88,0.00,,,0.00,0.0,meteohub,2013-06-22 03:03:00,
2013-06-21 23:08:00,80.2,76.3,30.09,East,82,6.0,14.0,88,0.00,,,0.00,0.0,meteohub,2013-06-22 03:08:00,
2013-06-21 23:13:00,80.2,76.3,30.09,ENE,69,3.0,14.0,88,0.00,,,0.00,0.0,meteohub,2013-06-22 03:13:00,
2013-06-21 23:18:00,80.2,76.3,30.09,NE,56,7.0,12.0,88,0.00,,,0.00,0.0,meteohub,2013-06-22 03:18:00,
2013-06-21 23:23:00,80.2,76.3,30.09,ENE,76,7.0,14.0,88,0.00,,,0.00,0.0,meteohub,2013-06-22 03:23:00,
2013-06-21 23:28:00,80.2,76.3,30.09,ESE,109,6.0,14.0,88,0.00,,,0.00,0.0,meteohub,2013-06-22 03:28:00,
2013-06-21 23:33:00,80.2,76.3,30.09,East,85,6.0,15.0,88,0.00,,,0.00,0.0,meteohub,2013-06-22 03:33:00,
2013-06-21 23:38:00,80.2,76.3,30.09,ENE,66,5.0,15.0,88,0.00,,,0.00,0.0,meteohub,2013-06-22 03:38:00,
2013-06-21 23:43:00,80.2,76.3,30.09,NE,56,5.0,13.0,88,0.00,,,0.00,0.0,meteohub,2013-06-22 03:43:00,
2013-06-21 23:48:00,80.2,76.3,30.09,ENE,58,0.0,13.0,88,0.00,,,0.00,0.0,meteohub,2013-06-22 03:48:00,
2013-06-21 23:53:00,80.2,76.3,30.09,ENE,61,8.0,13.0,88,0.00,,,0.00,0.0,meteohub,2013-06-22 03:53:00,
2013-06-21 23:58:00,80.2,76.3,30.09,East,100,2.0,13.0,88,0.00,,,0.00,0.0,meteohub,2013-06-22 03:58:00,